When you browse on this site, cookies collect data to enhance your experience and personalize the content and advertising you see.
Visit our Privacy Policy to learn more. By continuing to use the site, you agree to this use of cookies and data.
  • In Hungary
  • List of Countries
  • For 7 days
  • Water Temperature
  • Satellite Maps
  • Weather Map
  • News
  • Weather Widgets
  • user-avatar
    Login

    Hourly Weather Maracaibo

    Today, 20 January, Sunday

    Time Temperature Precipitation Wind Pressure Humidity
    00:00 +28°C° 0 mm 5 mps 753 mmHg 67%
    01:00 +28°C° 0 mm 4 mps 753 mmHg 67%
    02:00 +28°C° 0 mm 4 mps 753 mmHg 68%
    03:00 +28°C° 0 mm 3 mps 753 mmHg 68%
    04:00 +27°C° 0 mm 3 mps 753 mmHg 69%
    05:00 +27°C° 0 mm 3 mps 753 mmHg 68%
    06:00 +28°C° 0 mm 2 mps 754 mmHg 68%
    07:00 +28°C° 0 mm 2 mps 754 mmHg 68%
    08:00 +29°C° 0 mm 2 mps 754 mmHg 62%
    09:00 +31°C° 0 mm 1 mps 754 mmHg 56%
    10:00 +33°C° 0 mm 1 mps 754 mmHg 51%
    11:00 +34°C° 0 mm 1 mps 754 mmHg 48%
    12:00 +36°C° 0 mm 2 mps 753 mmHg 46%
    13:00 +36°C° 0 mm 2 mps 752 mmHg 43%
    14:00 +36°C° 0 mm 3 mps 752 mmHg 46%
    15:00 +35°C° 0 mm 4 mps 751 mmHg 49%
    16:00 +34°C° 0 mm 5 mps 751 mmHg 52%
    17:00 +33°C° 0 mm 6 mps 751 mmHg 59%
    18:00 +30°C° 0 mm 6 mps 752 mmHg 65%
    19:00 +29°C° 0 mm 7 mps 752 mmHg 72%
    20:00 +29°C° 0 mm 6 mps 753 mmHg 72%
    21:00 +29°C° 0 mm 6 mps 753 mmHg 72%
    22:00 +28°C° 0 mm 6 mps 754 mmHg 73%
    23:00 +28°C° 0 mm 6 mps 754 mmHg 72%

    Tomorrow, 21 January, Monday

    Time Temperature Precipitation Wind Pressure Humidity
    00:00 +28°C° 0 mm 5 mps 754 mmHg 71%
    01:00 +28°C° 0 mm 5 mps 754 mmHg 70%
    02:00 +28°C° 0 mm 5 mps 754 mmHg 70%
    03:00 +28°C° 0 mm 4 mps 754 mmHg 71%
    04:00 +28°C° 0 mm 4 mps 754 mmHg 71%
    05:00 +28°C° 0 mm 4 mps 754 mmHg 71%
    06:00 +28°C° 0 mm 4 mps 755 mmHg 71%
    07:00 +28°C° 0 mm 4 mps 755 mmHg 71%
    08:00 +29°C° 0 mm 4 mps 755 mmHg 65%
    09:00 +31°C° 0 mm 3 mps 756 mmHg 58%
    10:00 +33°C° 0 mm 3 mps 756 mmHg 52%
    11:00 +34°C° 0.1 mm 3 mps 755 mmHg 50%
    12:00 +35°C° 0.1 mm 3 mps 755 mmHg 49%
    13:00 +35°C° 0.1 mm 3 mps 754 mmHg 47%
    14:00 +35°C° 0 mm 4 mps 753 mmHg 50%
    15:00 +34°C° 0 mm 5 mps 753 mmHg 52%
    16:00 +34°C° 0 mm 6 mps 752 mmHg 55%
    17:00 +33°C° 0 mm 6 mps 753 mmHg 60%
    18:00 +32°C° 0 mm 6 mps 753 mmHg 64%
    19:00 +29°C° 0 mm 6 mps 754 mmHg 69%
    20:00 +29°C° 0 mm 6 mps 754 mmHg 69%
    21:00 +29°C° 0 mm 6 mps 755 mmHg 69%
    22:00 +29°C° 0 mm 5 mps 755 mmHg 70%
    23:00 +29°C° 0 mm 5 mps 755 mmHg 69%

    Day after tomorrow, 22 January, Tuesday

    Time Temperature Precipitation Wind Pressure Humidity
    00:00 +28°C° 0 mm 5 mps 755 mmHg 68%
    01:00 +28°C° 0 mm 5 mps 755 mmHg 67%
    02:00 +28°C° 0 mm 5 mps 754 mmHg 68%
    03:00 +27°C° 0 mm 4 mps 754 mmHg 69%
    04:00 +27°C° 0 mm 4 mps 754 mmHg 70%
    05:00 +27°C° 0 mm 4 mps 754 mmHg 69%
    06:00 +27°C° 0 mm 4 mps 755 mmHg 68%
    07:00 +27°C° 0 mm 4 mps 755 mmHg 68%
    08:00 +29°C° 0 mm 4 mps 755 mmHg 61%
    09:00 +32°C° 0 mm 4 mps 756 mmHg 54%
    10:00 +33°C° 0 mm 3 mps 756 mmHg 48%
    11:00 +34°C° 0 mm 3 mps 755 mmHg 46%
    12:00 +35°C° 0 mm 3 mps 754 mmHg 45%
    13:00 +35°C° 0 mm 3 mps 753 mmHg 43%
    14:00 +35°C° 0 mm 5 mps 753 mmHg 45%
    15:00 +35°C° 0 mm 6 mps 752 mmHg 48%
    16:00 +34°C° 0 mm 7 mps 752 mmHg 50%
    17:00 +33°C° 0 mm 7 mps 752 mmHg 53%
    18:00 +32°C° 0 mm 8 mps 753 mmHg 56%
    19:00 +31°C° 0 mm 8 mps 754 mmHg 60%
    20:00 +31°C° 0 mm 8 mps 754 mmHg 59%
    21:00 +29°C° 0 mm 7 mps 755 mmHg 59%
    22:00 +29°C° 0 mm 6 mps 755 mmHg 58%
    23:00 +29°C° 0 mm 6 mps 755 mmHg 59%

    23 January, Wednesday

    Time Temperature Precipitation Wind Pressure Humidity
    00:00 +28°C° 0 mm 6 mps 755 mmHg 60%
    01:00 +28°C° 0 mm 5 mps 755 mmHg 60%
    02:00 +28°C° 0 mm 5 mps 754 mmHg 61%
    03:00 +28°C° 0 mm 4 mps 754 mmHg 62%
    04:00 +27°C° 0 mm 4 mps 754 mmHg 62%
    05:00 +27°C° 0 mm 4 mps 754 mmHg 62%
    06:00 +28°C° 0 mm 4 mps 755 mmHg 62%
    07:00 +28°C° 0 mm 4 mps 755 mmHg 62%
    08:00 +29°C° 0 mm 3 mps 755 mmHg 56%
    09:00 +31°C° 0 mm 3 mps 756 mmHg 50%
    10:00 +33°C° 0 mm 3 mps 756 mmHg 44%
    11:00 +35°C° 0 mm 3 mps 755 mmHg 41%
    12:00 +36°C° 0 mm 3 mps 754 mmHg 39%
    13:00 +37°C° 0 mm 3 mps 753 mmHg 36%
    14:00 +36°C° 0 mm 4 mps 752 mmHg 39%
    15:00 +35°C° 0 mm 5 mps 751 mmHg 43%
    16:00 +35°C° 0 mm 6 mps 751 mmHg 46%
    17:00 +34°C° 0 mm 6 mps 751 mmHg 49%
    18:00 +33°C° 0 mm 6 mps 752 mmHg 51%
    19:00 +32°C° 0 mm 7 mps 753 mmHg 54%
    20:00 +30°C° 0 mm 6 mps 753 mmHg 56%
    21:00 +30°C° 0 mm 6 mps 754 mmHg 57%
    22:00 +29°C° 0 mm 6 mps 754 mmHg 59%
    23:00 +29°C° 0 mm 6 mps 754 mmHg 61%

    24 January, Thursday

    Time Temperature Precipitation Wind Pressure Humidity
    00:00 +28°C° 0 mm 5 mps 754 mmHg 62%
    01:00 +28°C° 0 mm 4 mps 753 mmHg 63%
    02:00 +28°C° 0 mm 4 mps 753 mmHg 64%
    03:00 +28°C° 0 mm 4 mps 753 mmHg 65%
    04:00 +28°C° 0 mm 3 mps 753 mmHg 65%
    05:00 +28°C° 0 mm 3 mps 753 mmHg 65%
    06:00 +28°C° 0 mm 3 mps 754 mmHg 65%
    07:00 +28°C° 0 mm 3 mps 754 mmHg 65%
    08:00 +29°C° 0 mm 2 mps 754 mmHg 61%
    09:00 +30°C° 0 mm 2 mps 754 mmHg 57%
    10:00 +31°C° 0 mm 1 mps 755 mmHg 54%
    11:00 +32°C° 0 mm 1 mps 754 mmHg 50%
    12:00 +35°C° 0 mm 2 mps 753 mmHg 46%
    13:00 +37°C° 0 mm 2 mps 752 mmHg 42%
    14:00 +36°C° 0 mm 3 mps 752 mmHg 44%
    15:00 +35°C° 0 mm 4 mps 751 mmHg 46%
    16:00 +35°C° 0 mm 5 mps 751 mmHg 48%
    17:00 +34°C° 0 mm 5 mps 751 mmHg 53%
    18:00 +32°C° 0 mm 5 mps 752 mmHg 58%
    19:00 +30°C° 0 mm 6 mps 752 mmHg 63%
    20:00 +30°C° 0 mm 5 mps 753 mmHg 62%
    21:00 +30°C° 0 mm 5 mps 753 mmHg 62%
    22:00 +30°C° 0 mm 5 mps 754 mmHg 61%
    23:00 +29°C° 0 mm 4 mps 754 mmHg 63%

    25 January, Friday

    Time Temperature Precipitation Wind Pressure Humidity
    00:00 +29°C° 0 mm 4 mps 753 mmHg 64%
    01:00 +28°C° 0 mm 3 mps 753 mmHg 65%
    02:00 +28°C° 0 mm 3 mps 753 mmHg 66%
    03:00 +28°C° 0 mm 3 mps 753 mmHg 67%
    04:00 +27°C° 0 mm 3 mps 753 mmHg 68%
    05:00 +27°C° 0 mm 3 mps 753 mmHg 68%
    06:00 +28°C° 0 mm 2 mps 754 mmHg 67%
    07:00 +28°C° 0 mm 2 mps 754 mmHg 67%
    08:00 +29°C° 0 mm 2 mps 754 mmHg 62%
    09:00 +31°C° 0 mm 2 mps 755 mmHg 57%
    10:00 +33°C° 0 mm 1 mps 755 mmHg 52%
    11:00 +35°C° 0 mm 2 mps 754 mmHg 49%
    12:00 +35°C° 0 mm 2 mps 753 mmHg 46%
    13:00 +36°C° 0 mm 2 mps 752 mmHg 43%
    14:00 +36°C° 0 mm 3 mps 752 mmHg 45%
    15:00 +35°C° 0 mm 4 mps 751 mmHg 47%
    16:00 +35°C° 0 mm 5 mps 751 mmHg 49%
    17:00 +34°C° 0 mm 5 mps 751 mmHg 53%
    18:00 +32°C° 0 mm 5 mps 752 mmHg 57%
    19:00 +30°C° 0 mm 6 mps 752 mmHg 61%
    20:00 +30°C° 0 mm 6 mps 753 mmHg 62%
    21:00 +29°C° 0 mm 5 mps 753 mmHg 63%
    22:00 +29°C° 0 mm 5 mps 754 mmHg 64%
    23:00 +29°C° 0 mm 4 mps 754 mmHg 64%
    Show more